Weather History for Yankton, SD

Change the Weather History Date:

Thursday, March 6, 2014

  Actual Average Record
Temperature  
Mean Temperature 30 °F -  
Max Temperature 44 °F 41 °F 77 °F (2012)
Min Temperature 17 °F 18 °F -10 °F (1960)
Degree Days  
Heating Degree Days 34    
Moisture  
Dew Point 25 °F    
Average Humidity 79    
Maximum Humidity 100    
Minimum Humidity 61    
Precipitation  
Precipitation 0.00 in - - ()
Sea Level Pressure  
Sea Level Pressure 29.91 in    
Wind  
Wind Speed 14 mph (SSE)    
Max Wind Speed 25 mph    
Max Gust Speed 31 mph    
Visibility 6 miles    
Events      
Averages and records for this station are not official NWS values.
T = Trace of Precipitation, MM = Missing Value Source: NWS Daily Summary

Daily Weather History Graph

Daily Weather History Graph

Search for Another Location

Airport:

Trip Planner

Search our weather history database for the weather conditions in past years. The results will help you decide how hot, cold, wet, or windy it might be!

Date:

Astronomy

Mar. 06, 2014 Rise Set
Actual Time 6:57 AM CST 6:25 PM CST
Civil Twilight 6:28 AM CST 6:53 PM CST
Nautical Twilight 5:55 AM CST 7:26 PM CST
Astronomical Twilight 5:23 AM CST 7:59 PM CST
Moon 9:57 AM CST (3/6) No Moon Set
Length of Visible Light 12h 24m
Length of Day
11h 28m
Waxing Crescent, 32% of the Moon is Illuminated
Mar 6
Waxing Crescent
Mar 8
First Quarter
Mar 16
Full
Mar 23
Last Quarter
Mar 30
New

Hourly Weather History & Observations

Time (CST) Temp. Windchill Dew Point Humidity Pressure Visibility Wind Dir Wind Speed Gust Speed Precip Events Conditions
12:15 AM 17.6 °F 3.7 °F 15.8 °F 93% 30.21 in 4.0 mi SE 13.8 mph - N/A   Clear
12:35 AM 17.6 °F 5.0 °F 15.8 °F 93% 30.21 in 3.0 mi SE 11.5 mph - N/A   Clear
12:55 AM 17.6 °F 5.7 °F 15.8 °F 93% 30.20 in 3.0 mi SE 10.4 mph - N/A   Clear
1:15 AM 17.6 °F 3.7 °F 15.8 °F 93% 30.20 in 4.0 mi SE 13.8 mph 18.4 mph N/A   Clear
1:35 AM 17.6 °F 5.7 °F 17.6 °F 100% 30.19 in 4.0 mi SSE 10.4 mph - N/A   Clear
1:55 AM 17.6 °F 5.0 °F 17.6 °F 100% 30.17 in 4.0 mi SSE 11.5 mph - N/A   Clear
2:15 AM 19.4 °F 6.0 °F 17.6 °F 93% 30.15 in 4.0 mi SSE 13.8 mph - N/A   Clear
2:35 AM 19.4 °F 6.0 °F 17.6 °F 93% 30.14 in 4.0 mi SSE 13.8 mph - N/A   Clear
2:55 AM 17.6 °F 6.4 °F 15.8 °F 93% 30.15 in 4.0 mi SSE 9.2 mph - N/A   Clear
3:15 AM 17.6 °F 5.0 °F 15.8 °F 93% 30.13 in 4.0 mi SE 11.5 mph - N/A   Clear
3:35 AM 19.4 °F 6.6 °F 15.8 °F 86% 30.12 in 4.0 mi SSE 12.7 mph - N/A   Clear
3:55 AM 19.4 °F 6.6 °F 17.6 °F 93% 30.12 in 5.0 mi SE 12.7 mph - N/A   Clear
4:15 AM 19.4 °F 6.0 °F 17.6 °F 93% 30.11 in 5.0 mi SE 13.8 mph - N/A   Clear
4:35 AM 19.4 °F 7.2 °F 15.8 °F 86% 30.11 in 5.0 mi SE 11.5 mph - N/A   Clear
4:55 AM 19.4 °F 7.9 °F 15.8 °F 86% 30.10 in 4.0 mi SE 10.4 mph - N/A   Clear
5:15 AM 19.4 °F 6.0 °F 17.6 °F 93% 30.10 in 4.0 mi SE 13.8 mph - N/A   Clear
5:35 AM 19.4 °F 7.2 °F 17.6 °F 93% 30.09 in 4.0 mi SE 11.5 mph - N/A   Clear
5:55 AM 19.4 °F 5.5 °F 17.6 °F 93% 30.07 in 4.0 mi SE 15.0 mph - N/A   Clear
6:15 AM 21.2 °F 7.3 °F 17.6 °F 86% 30.05 in 4.0 mi SSE 16.1 mph - N/A   Clear
6:35 AM 21.2 °F 7.8 °F 17.6 °F 86% 30.05 in 4.0 mi SE 15.0 mph - N/A   Clear
6:55 AM 21.2 °F 8.3 °F 19.4 °F 93% 30.04 in 3.0 mi SE 13.8 mph - N/A   Clear
7:15 AM 21.2 °F 7.8 °F 17.6 °F 86% 30.03 in 3.0 mi SE 15.0 mph - N/A   Clear
7:35 AM 21.2 °F 7.8 °F 19.4 °F 93% 30.02 in 3.0 mi SE 15.0 mph - N/A   Clear
7:55 AM 23.0 °F 8.0 °F 19.4 °F 86% 30.00 in 3.0 mi SE 20.7 mph 24.2 mph N/A   Clear
8:15 AM 24.8 °F 10.7 °F 19.4 °F 80% 30.00 in 3.0 mi SSE 19.6 mph 24.2 mph N/A   Clear
8:35 AM 26.6 °F 12.7 °F 19.4 °F 74% 29.99 in 5.0 mi SSE 20.7 mph 25.3 mph N/A   Clear
8:55 AM 26.6 °F 13.4 °F 21.2 °F 80% 29.99 in 4.0 mi SSE 18.4 mph 24.2 mph N/A   Clear
9:15 AM 26.6 °F 13.4 °F 21.2 °F 80% 29.98 in 4.0 mi SSE 18.4 mph 23.0 mph N/A   Clear
9:35 AM 28.4 °F 15.4 °F 23.0 °F 80% 29.98 in 4.0 mi SSE 19.6 mph 23.0 mph N/A   Clear
9:55 AM 28.4 °F 15.1 °F 23.0 °F 80% 29.96 in 5.0 mi SSE 20.7 mph 25.3 mph N/A   Clear
10:15 AM 30.2 °F 16.2 °F 24.8 °F 80% 29.95 in 5.0 mi South 25.3 mph 31.1 mph N/A   Clear
10:35 AM 30.2 °F 16.5 °F 24.8 °F 80% 29.94 in 5.0 mi SSE 24.2 mph - N/A   Clear
10:55 AM 32.0 °F 21.2 °F 26.6 °F 80% 29.94 in 5.0 mi SSE 16.1 mph - N/A   Clear
11:15 AM 33.8 °F 22.8 °F 26.6 °F 75% 29.92 in 5.0 mi SSE 18.4 mph 25.3 mph N/A   Clear
11:35 AM 33.8 °F 25.8 °F 26.6 °F 75% 29.92 in 6.0 mi SSE 10.4 mph - N/A   Clear
11:55 AM 35.6 °F 25.5 °F 26.6 °F 70% 29.91 in 6.0 mi South 17.3 mph 25.3 mph N/A   Clear
12:15 PM 35.6 °F 25.5 °F 28.4 °F 75% 29.91 in 6.0 mi South 17.3 mph 24.2 mph N/A   Clear
12:35 PM 37.4 °F 27.8 °F 28.4 °F 70% 29.89 in 6.0 mi SSE 17.3 mph 23.0 mph N/A   Clear
12:55 PM 37.4 °F 28.2 °F 28.4 °F 70% 29.88 in 7.0 mi South 16.1 mph - N/A   Clear
1:15 PM 37.4 °F 27.8 °F 28.4 °F 70% 29.86 in 7.0 mi South 17.3 mph 26.5 mph N/A   Clear
1:35 PM 39.2 °F 30.8 °F 30.2 °F 70% 29.85 in 8.0 mi SSE 15.0 mph - N/A   Clear
1:55 PM 39.2 °F 30.8 °F 30.2 °F 70% 29.83 in 7.0 mi SSE 15.0 mph - N/A   Clear
2:15 PM 39.2 °F 30.2 °F 30.2 °F 70% 29.82 in 8.0 mi SSE 17.3 mph - N/A   Clear
2:35 PM 41.0 °F 34.3 °F 30.2 °F 65% 29.81 in 9.0 mi SSE 11.5 mph - N/A   Clear
2:55 PM 41.0 °F 33.5 °F 30.2 °F 65% 29.80 in 9.0 mi SSE 13.8 mph - N/A   Clear
3:15 PM 42.8 °F 36.2 °F 32.0 °F 66% 29.79 in 9.0 mi SSE 12.7 mph - N/A   Clear
3:35 PM 42.8 °F 36.2 °F 32.0 °F 66% 29.79 in 9.0 mi SSE 12.7 mph - N/A   Clear
3:55 PM 44.6 °F 38.8 °F 32.0 °F 61% 29.78 in 9.0 mi SSE 11.5 mph - N/A   Clear
4:15 PM 42.8 °F 36.6 °F 32.0 °F 66% 29.77 in 10.0 mi SSE 11.5 mph - N/A   Clear
4:35 PM 42.8 °F 36.2 °F 32.0 °F 66% 29.76 in 9.0 mi SSE 12.7 mph - N/A   Clear
4:55 PM 42.8 °F 35.8 °F 32.0 °F 66% 29.76 in 10.0 mi SSE 13.8 mph - N/A   Clear
5:15 PM 42.8 °F 36.6 °F 33.8 °F 70% 29.74 in 9.0 mi SE 11.5 mph - N/A   Clear
5:35 PM 42.8 °F 36.6 °F 32.0 °F 66% 29.74 in 9.0 mi SSE 11.5 mph - N/A   Clear
5:55 PM 42.8 °F 37.5 °F 32.0 °F 66% 29.74 in 9.0 mi SE 9.2 mph - N/A   Clear
6:15 PM 42.8 °F 38.0 °F 32.0 °F 66% 29.74 in 9.0 mi SSE 8.1 mph - N/A   Clear
6:35 PM 41.0 °F 34.7 °F 32.0 °F 70% 29.74 in 9.0 mi SSE 10.4 mph - N/A   Clear
6:55 PM 39.2 °F 32.5 °F 32.0 °F 75% 29.74 in 10.0 mi SSE 10.4 mph - N/A   Clear
7:15 PM 41.0 °F 33.9 °F 32.0 °F 70% 29.73 in 10.0 mi South 12.7 mph - N/A   Clear
7:35 PM 41.0 °F 33.5 °F 30.2 °F 65% 29.73 in 10.0 mi SSE 13.8 mph - N/A   Clear
7:55 PM 39.2 °F 32.0 °F 30.2 °F 70% 29.73 in 9.0 mi SSE 11.5 mph - N/A   Clear
8:15 PM 39.2 °F 31.6 °F 30.2 °F 70% 29.72 in 9.0 mi South 12.7 mph - N/A   Clear
8:35 PM 39.2 °F 30.8 °F 30.2 °F 70% 29.72 in 9.0 mi South 15.0 mph - N/A   Clear
8:55 PM 39.2 °F 31.2 °F 30.2 °F 70% 29.72 in 9.0 mi South 13.8 mph - N/A   Clear
9:15 PM 37.4 °F 29.3 °F 30.2 °F 75% 29.72 in 8.0 mi SSE 12.7 mph - N/A   Clear
9:35 PM 37.4 °F 29.8 °F 30.2 °F 75% 29.73 in 8.0 mi SSE 11.5 mph - N/A   Clear
9:55 PM 37.4 °F 29.8 °F 30.2 °F 75% 29.73 in 7.0 mi SSE 11.5 mph - N/A   Clear
10:15 PM 35.6 °F 28.0 °F 30.2 °F 81% 29.72 in 6.0 mi SSE 10.4 mph - N/A   Clear
10:35 PM 35.6 °F 28.0 °F 30.2 °F 81% 29.72 in 6.0 mi SSE 10.4 mph - N/A   Clear
10:55 PM 35.6 °F 28.6 °F 30.2 °F 81% 29.71 in 5.0 mi SSE 9.2 mph - N/A   Clear
11:15 PM 35.6 °F 28.0 °F 30.2 °F 81% 29.69 in 5.0 mi SE 10.4 mph - N/A   Clear
11:35 PM 35.6 °F 28.0 °F 30.2 °F 81% 29.68 in 7.0 mi SSE 10.4 mph - N/A   Clear
11:55 PM 35.6 °F 29.2 °F 30.2 °F 81% 29.68 in 7.0 mi SSE 8.1 mph - N/A   Clear